Meteo Giornale » Osservazioni meteo Italia » Aosta

ore: 12:20 - Osservazioni Meteo Aosta
Lat. 45° 44' N Lon. 7° 22' E Alt. 546 metri s.l.m.

molto_nuvoloso Europe/Rome

17 °C

Molto Nuvoloso

Temp. 24 Ore

13 °C

18 °C

Nord

1.8 Km/h

Dew point 12 °C

Umidità 72 %

Visibilità  10 Km

Il sole sorge alle ore 07:56

Il sole tramonta alle ore 18:33

Data e Ora Cielo e Fenomeni T °C DP °C Um. % Pres. hPa Vis. km Vento km/h
Oggi h: 12:20 molto_nuvoloso Molto Nuvoloso 17 12 72 1021 10 N 1.8
Oggi h: 11:50 molto_nuvoloso Molto Nuvoloso 16 12 77 1022 10 N 3.7
Oggi h: 11:20 molto_nuvoloso Molto Nuvoloso 16 12 77 1022 10 N 3.7
Oggi h: 10:50 molto_nuvoloso Molto Nuvoloso 15 13 87 1023 10 N 5.5
Oggi h: 10:20 molto_nuvoloso Molto Nuvoloso 15 13 87 1023 10 N 0
Oggi h: 09:20 coperto Coperto 14 14 100 1023 10 N 3.7
Oggi h: 08:50 coperto Coperto 14 14 100 1023 10 N 3.7
Oggi h: 08:20 coperto Coperto 13 13 100 1023 10 N 0
Oggi h: 07:50 coperto Coperto 13 13 100 1023 10 N 5.5
Ieri h: 18:50 coperto_pioggia Pioggia Debole 17 17 100 1023 10 N 3.7
Ieri h: 18:20 coperto Coperto 17 17 100 1023 10 N 3.7
Ieri h: 17:50 coperto Coperto 17 17 100 1023 10 N 3.7
Ieri h: 17:20 coperto Coperto 18 16 88 1023 10 N 1.8
Ieri h: 16:50 coperto Coperto 18 17 93 1023 10 N 3.7
Ieri h: 16:20 molto_nuvoloso Molto Nuvoloso 18 16 88 1023 10 N 3.7
Ieri h: 15:50 molto_nuvoloso Molto Nuvoloso 17 16 93 1023 10 N 1.8
Ieri h: 15:20 molto_nuvoloso Molto Nuvoloso 17 15 88 1023 10 N 3.7
Ieri h: 14:50 molto_nuvoloso Molto Nuvoloso 17 15 88 1023 10 N 1.8
Ieri h: 14:20 coperto Coperto 17 16 93 1024 10 N 3.7
Ieri h: 13:50 molto_nuvoloso Molto Nuvoloso 17 16 93 1024 10 N 3.7
Ieri h: 13:20 coperto Coperto 16 16 100 1024 10 N 3.7
Ieri h: 12:50 coperto_pioggia Pioggia Debole 15 15 100 1025 10 N 1.8